Greenville, MS

11:44 PM CST on November 24, 2017 (GMT -0600)
Mid Delta Regional

Weather History for KGLH - May, 2013

Change the Weather History Date:

Monday, May 6, 2013

  Actual Average Record
Temperature  
Mean Temperature 61 °F 70 °F  
Max Temperature 68 °F 80 °F 92 °F (1955)
Min Temperature 53 °F 59 °F 45 °F (2005)
Degree Days  
Heating Degree Days 4 1  
Month to date heating degree days 42 6  
Since 1 July heating degree days 2685 2767  
Cooling Degree Days 0 6  
Month to date cooling degree days 3 30  
Year to date cooling degree days 82 116  
Growing Degree Days 10 (Base 50)    
Moisture  
Dew Point 52 °F    
Average Humidity 75    
Maximum Humidity 86    
Minimum Humidity 63    
Precipitation  
Precipitation T in 0.18 in 2.05 in (1960)
Month to date precipitation 0.69 1.08  
Year to date precipitation 21.35 20.43  
Sea Level Pressure  
Sea Level Pressure 29.98 in    
Wind  
Wind Speed 8 mph (WNW)    
Max Wind Speed 17 mph    
Max Gust Speed 22 mph    
Visibility 10 miles    
Events Rain    
T = Trace of Precipitation, MM = Missing Value Source: NWS Daily Summary

Daily Weather History Graph

Daily Weather History Graph

Search for Another Location

Airport or City:

Trip Planner

Search our weather history database for the weather conditions in past years. The results will help you decide how hot, cold, wet, or windy it might be!

Date:

Astronomy

May. 06, 2013 Rise Set
Actual Time 6:10 AM CDT 7:50 PM CDT
Civil Twilight 5:43 AM CDT 8:17 PM CDT
Nautical Twilight 5:11 AM CDT 8:50 PM CDT
Astronomical Twilight 4:37 AM CDT 9:24 PM CDT
Moon 4:03 AM CDT (5/6) 4:58 PM CDT (5/6)
Length of Visible Light 14h 33m
Length of Day
13h 40m
Waning Crescent, 11% of the Moon is Illuminated
May 6
Waning Crescent
May 9
New
May 17
First Quarter
May 24
Full
May 31
Last Quarter

Hourly Weather History & Observations

Time (CDT) Temp. Dew Point Humidity Pressure Visibility Wind Dir Wind Speed Gust Speed Precip Events Conditions
12:53 AM 57.0 °F 46.9 °F 69% 29.99 in 10.0 mi WNW 5.8 mph - N/A   Overcast
1:53 AM 57.0 °F 46.9 °F 69% 29.96 in 10.0 mi West 5.8 mph - N/A   Overcast
2:53 AM 55.0 °F 48.9 °F 80% 29.95 in 10.0 mi SW 5.8 mph - N/A   Overcast
3:53 AM 57.0 °F 48.0 °F 72% 29.95 in 10.0 mi West 8.1 mph - N/A   Overcast
4:53 AM 55.9 °F 48.9 °F 77% 29.95 in 10.0 mi WNW 8.1 mph - N/A   Overcast
5:53 AM 55.0 °F 48.9 °F 80% 29.96 in 10.0 mi WNW 8.1 mph - N/A   Overcast
6:53 AM 55.0 °F 48.9 °F 80% 29.98 in 5.0 mi WNW 10.4 mph - 0.00 in Rain Light Rain
7:53 AM 55.0 °F 51.1 °F 86% 29.99 in 10.0 mi West 6.9 mph - 0.00 in   Overcast
8:53 AM 57.0 °F 52.0 °F 83% 29.99 in 10.0 mi WNW 8.1 mph - N/A   Overcast
9:53 AM 61.0 °F 53.1 °F 75% 29.99 in 10.0 mi WNW 12.7 mph 18.4 mph N/A   Overcast
10:53 AM 63.0 °F 54.0 °F 72% 30.00 in 10.0 mi NW 13.8 mph - N/A   Overcast
11:53 AM 62.1 °F 53.1 °F 72% 29.99 in 10.0 mi NNW 12.7 mph - N/A   Overcast
12:53 PM 62.1 °F 54.0 °F 75% 29.99 in 10.0 mi NNW 15.0 mph - N/A   Overcast
1:00 PM 62.6 °F 53.6 °F 72% 29.97 in 10.0 mi NNW 13.8 mph - N/A   Overcast
1:31 PM 62.6 °F 53.6 °F 72% 29.97 in 10.0 mi WNW 6.9 mph - N/A   Overcast
1:53 PM 64.0 °F 54.0 °F 70% 29.99 in 10.0 mi WNW 13.8 mph 20.7 mph N/A   Overcast
2:00 PM 64.4 °F 53.6 °F 68% 29.96 in 10.0 mi WNW 9.2 mph - N/A   Overcast
2:53 PM 63.0 °F 54.0 °F 72% 29.98 in 10.0 mi WNW 8.1 mph - N/A   Overcast
3:53 PM 66.0 °F 55.0 °F 68% 29.95 in 10.0 mi West 12.7 mph - 0.00 in   Overcast
4:53 PM 66.0 °F 54.0 °F 65% 29.96 in 10.0 mi WNW 10.4 mph - N/A   Mostly Cloudy
5:53 PM 66.0 °F 55.0 °F 68% 29.96 in 10.0 mi NW 9.2 mph - N/A   Overcast
6:53 PM 66.9 °F 55.9 °F 68% 29.97 in 10.0 mi North 8.1 mph - N/A   Mostly Cloudy
7:53 PM 64.0 °F 55.9 °F 75% 29.99 in 10.0 mi NNW 3.5 mph - N/A   Overcast
8:53 PM 63.0 °F 55.9 °F 78% 29.99 in 10.0 mi WNW 3.5 mph - N/A   Overcast
9:53 PM 61.0 °F 54.0 °F 78% 30.01 in 10.0 mi WNW 5.8 mph - N/A   Partly Cloudy
10:53 PM 57.0 °F 53.1 °F 87% 30.02 in 10.0 mi West 3.5 mph - N/A   Clear
11:53 PM 55.0 °F 52.0 °F 89% 30.01 in 10.0 mi Calm Calm - N/A   Mostly Cloudy